Orbital elements of HUANJING 1B
| Launched | 5 September 2008 |
| Flight ended | – |
| Launch site | Taiyuan Space Center, PRC |
| Owner | People's Republic of China |
| NORAD ID | 33321 |
| Alternative names |
HJ-1B |
| Date fetched |
Epoch osculation |
Inc. [°] |
Ecc. | RA asc node [hr] |
Arg Peri. [°] |
Mean anom [°] |
Mean motion [rev/day] |
Abs. mag |
| Date fetched |
Epoch osculation |
Inc. [°] |
Ecc. | RA asc node [hr] |
Arg Peri. [°] |
Mean anom [°] |
Mean motion [rev/day] |
Abs. mag |
| 2026 May 01 17:56 | 2026 May 01 12:29:40 | 97.6504 | 0.00360 | 7.4989 | 339.1723 | 20.8021 | 14.83233 | 8.243 |
| 2026 Apr 30 17:56 | 2026 Apr 30 12:12:30 | 97.6505 | 0.00362 | 7.4343 | 342.5529 | 20.8021 | 14.83233 | 8.243 |
| 2026 Apr 29 17:57 | 2026 Apr 29 13:32:29 | 97.6508 | 0.00362 | 7.3739 | 345.7479 | 20.8021 | 14.83233 | 8.243 |
| 2026 Apr 28 17:56 | 2026 Apr 28 13:15:18 | 97.6510 | 0.00363 | 7.3093 | 349.1074 | 20.8021 | 14.83233 | 8.243 |
| 2026 Apr 27 17:58 | 2026 Apr 27 12:58:08 | 97.6512 | 0.00363 | 7.2447 | 352.4116 | 20.8021 | 14.83233 | 8.243 |
| 2026 Apr 26 17:58 | 2026 Apr 26 12:40:57 | 97.6512 | 0.00364 | 7.1801 | 355.6333 | 20.8021 | 14.83233 | 8.243 |
| 2026 Apr 25 17:58 | 2026 Apr 25 12:23:47 | 97.6514 | 0.00366 | 7.1155 | 358.9164 | 20.8021 | 14.83233 | 8.243 |
| 2026 Apr 24 17:59 | 2026 Apr 24 12:06:36 | 97.6516 | 0.00367 | 7.0509 | 2.2469 | 20.8021 | 14.83233 | 8.243 |
| 2026 Apr 23 17:57 | 2026 Apr 23 06:57:58 | 97.6518 | 0.00368 | 6.9733 | 6.3038 | 20.8021 | 14.83233 | 8.243 |
| 2026 Apr 22 17:57 | 2026 Apr 22 06:40:47 | 97.6515 | 0.00368 | 6.9087 | 9.6163 | 20.8021 | 14.83233 | 8.243 |
| 2026 Apr 21 17:57 | 2026 Apr 21 12:52:11 | 97.6512 | 0.00369 | 6.8613 | 11.9788 | 20.8021 | 14.83233 | 8.243 |
| 2026 Apr 20 17:57 | 2026 Apr 20 12:34:59 | 97.6508 | 0.00370 | 6.7966 | 15.1606 | 20.8021 | 14.83233 | 8.243 |
| 2026 Apr 19 17:58 | 2026 Apr 19 12:17:48 | 97.6505 | 0.00371 | 6.7320 | 18.3816 | 20.8021 | 14.83233 | 8.243 |
| 2026 Apr 18 17:56 | 2026 Apr 18 07:09:10 | 97.6503 | 0.00372 | 6.6545 | 22.3338 | 20.8021 | 14.83233 | 8.243 |
| 2026 Apr 16 17:57 | 2026 Apr 16 06:34:46 | 97.6503 | 0.00374 | 6.5252 | 28.9026 | 20.8021 | 14.83233 | 8.243 |
| 2026 Apr 14 17:57 | 2026 Apr 14 12:28:58 | 97.6504 | 0.00375 | 6.4132 | 34.3827 | 20.8021 | 14.83233 | 8.243 |
| 2026 Apr 13 17:57 | 2026 Apr 13 05:43:10 | 97.6510 | 0.00376 | 6.3314 | 38.4625 | 20.8021 | 14.83233 | 8.243 |
| 2026 Apr 12 17:57 | 2026 Apr 12 11:54:33 | 97.6510 | 0.00377 | 6.2840 | 40.8291 | 20.8021 | 14.83233 | 8.243 |
| 2026 Apr 11 17:57 | 2026 Apr 11 13:14:30 | 97.6512 | 0.00377 | 6.2237 | 43.8825 | 20.8021 | 14.83233 | 8.243 |
| 2026 Apr 10 17:58 | 2026 Apr 10 06:28:42 | 97.6512 | 0.00377 | 6.1419 | 47.9660 | 20.8021 | 14.83233 | 8.243 |
| 2026 Apr 09 18:01 | 2026 Apr 09 06:11:30 | 97.6511 | 0.00377 | 6.0773 | 51.1542 | 20.8021 | 14.83233 | 8.243 |
| 2026 Apr 08 17:57 | 2026 Apr 08 07:31:26 | 97.6509 | 0.00378 | 6.0169 | 54.0355 | 20.8021 | 14.83233 | 8.243 |
| 2026 Apr 07 17:57 | 2026 Apr 07 05:37:04 | 97.6507 | 0.00379 | 5.9480 | 57.4407 | 20.8021 | 14.83233 | 8.243 |
| 2026 Apr 06 17:57 | 2026 Apr 06 06:57:00 | 97.6505 | 0.00380 | 5.8877 | 60.4519 | 20.8021 | 14.83233 | 8.243 |
| 2026 Apr 05 17:56 | 2026 Apr 05 13:08:23 | 97.6506 | 0.00380 | 5.8403 | 62.9002 | 20.8021 | 14.83233 | 8.243 |
| 2026 Apr 04 17:57 | 2026 Apr 04 06:22:34 | 97.6503 | 0.00380 | 5.7585 | 66.9893 | 20.8021 | 14.83233 | 8.243 |